Location: The Rolnick Observatory
(41.1711°N, 73.3275°W)
Time: 05:21:08
(UTC-04:00)

Envisat - Pass Details

Date: 20 February 2019
Orbit: 764 x 766 km, 98.1° (Epoch: 14 October)

Event Time Altitude Azimuth Distance (km) Brightness Sun altitude
Rises 05:57:01 0° 36° (NE) 3,238 6.7 -9.0°
Reaches altitude 10° 06:01:10 10° 69° (ENE) 2,305 6.6 -8.3°
Maximum altitude 06:02:48 11° 88° (E) 2,201 7.0 -8.0°
Drops below altitude 10° 06:04:27 10° 108° (ESE) 2,300 7.1 -7.7°
Sets 06:08:33 0° 141° (SE) 3,219 7.1 -6.9°
